Location: Unspecified
(0.0000°N, 0.0000°E)
Time: 00:26:22
(UTC+00:00)

Vela 4B - Visible Passes

Search period start: 19 May 2026 00:00
Search period end: 29 May 2026 00:00
Orbit: 57069 x 167263 km, 36.4° (Epoch: 9 May)

Date Brightness Start Highest point End Pass type
(mag) Time Alt. Az. Time Alt. Az. Time Alt. Az.
19 May ? 17:57:45 10° ESE 00:08:52 57° S 06:23:03 10° SW daylight
20 May ? 22:35:01 10° SE 04:15:28 55° S 09:47:09 10° WSW visible
22 May ? 00:57:58 10° ESE 06:40:14 71° S 12:16:20 10° WSW visible
23 May ? 04:06:33 10° E 10:21:15 63° NNE 00:12:27 10° WNW visible
24 May ? 19:29:44 10° SE 01:24:41 53° S 07:15:55 10° SW visible
25 May ? 23:02:18 10° ESE 04:41:33 59° S 10:12:03 10° WSW visible
27 May ? 01:18:32 10° ESE 07:04:24 78° S 12:48:09 10° W visible
